Location: Newark
(48.9758°N, 29.9167°E)
Time: 19:09:09
(UTC+00:00)

OTV 5 (USA 277) - Visible Passes

Search period start: 14 October 2019 00:00
Search period end: 24 October 2019 00:00
Orbit: 310 x 324 km, 54.5° (Epoch: 08 October)

Date Brightness Start Highest point End Pass type
(mag) Time Alt. Az. Time Alt. Az. Time Alt. Az.
14 Oct ? 02:08:02 21° NNE 02:08:02 21° NNE 02:09:37 10° ENE visible
14 Oct ? 03:39:17 10° NW 03:42:00 52° NNE 03:44:41 10° ESE visible
15 Oct ? 02:22:12 28° NNE 02:22:12 28° NNE 02:24:30 10° ENE visible
16 Oct ? 02:36:26 37° N 02:36:46 40° NNE 02:39:24 10° E visible
17 Oct ? 02:50:44 45° NW 02:51:25 72° NNE 02:54:09 10° ESE visible
18 Oct ? 03:05:07 35° W 03:05:57 52° SW 03:08:38 10° SE visible
19 Oct ? 01:48:42 12° E 01:48:42 12° E 01:48:55 10° ESE visible
19 Oct ? 03:19:36 20° WSW 03:20:22 23° SW 03:22:37 10° SSE visible
20 Oct ? 02:03:18 12° SE 02:03:18 12° SE 02:03:33 10° SE visible
20 Oct ? 03:34:13 10° WSW 03:34:40 11° SW 03:35:18 10° SW visible
